Battle Creek, Michigan, United States (49014)
Lat: 42.32N, Lon: 85.18W
Wx Zone: MIZ073
Local Info
Past Weather Observations for Today

NOTE: This archive is for the closest National Weather Service station to Battle Creek. Information may differ from the station used for current weather conditions.

Click here for Long-term Archive

Time Weather Temperature Dewpoint Humidity Pressure Winds Precip Visibility
22:53
Clear
45°F / 7°C 41°F / 5°C 87% 29.98 in
(1015 mb)
Calm - 7SM
21:53
Clear
45°F / 7°C 41°F / 5°C 87% 29.98 in
(1015 mb)
Calm - 9SM
20:53
Clear
46°F / 8°C 43°F / 6°C 87% 29.98 in
(1015 mb)
S 3.5 mph
(S 6 kph)
- 7SM
19:53
Clear
48°F / 9°C 45°F / 7°C 87% 29.98 in
(1015 mb)
Calm - 10SM
18:53
Clear
54°F / 12°C 46°F / 8°C 77% 30.01 in
(1016 mb)
Calm - 10SM
17:53
Clear
57°F / 14°C 45°F / 7°C 63% 29.98 in
(1015 mb)
W 3.5 mph
(W 6 kph)
- 10SM
16:53
Mostly Cloudy
61°F / 16°C 46°F / 8°C 59% 29.98 in
(1015 mb)
SSW 6.9 mph
(SSW 11 kph)
- 10SM
15:53
Partly Cloudy
63°F / 17°C 46°F / 8°C 56% 29.98 in
(1015 mb)
SSW 11.5 mph
(SSW 19 kph)
- 10SM
14:53
Mostly Cloudy
63°F / 17°C 46°F / 8°C 56% 30.01 in
(1016 mb)
SSW 13.8 mph
(SSW 22 kph)
- 10SM
13:53
Mostly Cloudy
61°F / 16°C 46°F / 8°C 59% 30.01 in
(1016 mb)
SSW 9.2 mph
(SSW 15 kph)
- 10SM
12:53
Overcast
61°F / 16°C 48°F / 9°C 63% 30.04 in
(1017 mb)
SSE 6.9 mph
(SSE 11 kph)
- 10SM
11:53
Overcast
57°F / 14°C 46°F / 8°C 67% 30.06 in
(1018 mb)
SSE 5.8 mph
(SSE 9 kph)
- 10SM
11:34
Overcast
57°F / 14°C 46°F / 8°C 67% 30.06 in
(1018 mb)
SW 5.8 mph
(SW 9 kph)
- 10SM
10:53
Overcast
54°F / 12°C 45°F / 7°C 72% 30.06 in
(1018 mb)
SSE 3.5 mph
(SSE 6 kph)
- 7SM
09:53
Overcast
52°F / 11°C 45°F / 7°C 77% 30.09 in
(1019 mb)
SW 4.6 mph
(SW 7 kph)
- 8SM
08:53
Overcast
Hazy
50°F / 10°C 43°F / 6°C 76% 30.06 in
(1018 mb)
S 4.6 mph
(S 7 kph)
- 6SM
07:53
Overcast
Hazy
48°F / 9°C 43°F / 6°C 82% 30.06 in
(1018 mb)
SSE 3.5 mph
(SSE 6 kph)
- 6SM
07:13
Overcast
48°F / 9°C 43°F / 6°C 82% 30.06 in
(1018 mb)
SW 4.6 mph
(SW 7 kph)
- 8SM
06:53
Overcast
46°F / 8°C 41°F / 5°C 82% 30.06 in
(1018 mb)
SW 8.1 mph
(SW 13 kph)
- 8SM
05:53
Overcast
Hazy
46°F / 8°C 41°F / 5°C 82% 30.06 in
(1018 mb)
S 5.8 mph
(S 9 kph)
- 6SM
04:53
Mostly Cloudy
Fog And Mist
43°F / 6°C 39°F / 4°C 87% 30.06 in
(1018 mb)
S 4.6 mph
(S 7 kph)
- 5SM
03:53
Partly Cloudy
Hazy
43°F / 6°C 37°F / 3°C 81% 30.06 in
(1018 mb)
S 3.5 mph
(S 6 kph)
- 5SM
02:53
Overcast
Hazy
45°F / 7°C 39°F / 4°C 81% 30.06 in
(1018 mb)
SSE 3.5 mph
(SSE 6 kph)
- 6SM
01:53
Clear
Hazy
45°F / 7°C 37°F / 3°C 76% 30.09 in
(1019 mb)
S 3.5 mph
(S 6 kph)
- 6SM
00:53
Overcast
43°F / 6°C 37°F / 3°C 81% 30.09 in
(1019 mb)
Calm - 9SM
Time Weather Temperature Dewpoint Humidity Pressure Winds Precip Visibility


Weather for websites

WeatherForYou.com, LLC is not responsible for any damages or problems caused by this service. Current weather conditions are obtained from the closest station including government and personal stations which may have varying degrees of accuracy. Weather forecasts are derived from the NOAA NDFD. Like all things, this site belongs to Jesus Christ... He just trusts me to maintain it. If you have any questions or comments email webmaster@weatherforyou.com

Copyright © 2014, WeatherForYou.com LLC. All rights reserved.